Weather History for Kota Bharu, Malaysia

Change the Weather History Date:

Thursday, May 3, 2012

  Actual Average Record
Temperature  
Mean Temperature 84 °F -  
Max Temperature 92 °F 91 °F - ()
Min Temperature 75 °F 76 °F - ()
Cooling Degree Days 18    
Growing Degree Days 34 (Base 50)    
Moisture  
Dew Point 76 °F    
Average Humidity 79    
Maximum Humidity 94    
Minimum Humidity 53    
Precipitation  
Precipitation 0.00 in 0.13 in - ()
Sea Level Pressure  
Sea Level Pressure 29.75 in    
Wind  
Wind Speed 4 mph ()    
Max Wind Speed 10 mph    
Max Gust Speed -    
Visibility 6.7 miles    
Events      
T = Trace of Precipitation, MM = Missing Value Source: Averaged Metar Reports

Daily Weather History Graph

Daily Weather History Graph

Search for Another Location

Airport:

Trip Planner

Search our weather history database for the weather conditions in past years. The results will help you decide how hot, cold, wet, or windy it might be!

Date:

Astronomy

May. 03, 2012 Rise Set
Actual Time 6:57 AM MYT 7:18 PM MYT
Civil Twilight 6:35 AM MYT 7:39 PM MYT
Nautical Twilight 6:10 AM MYT 8:05 PM MYT
Astronomical Twilight 5:44 AM MYT 8:30 PM MYT
Moon 4:35 PM MYT (5/3) 4:03 AM MYT (5/3)
Length of Visible Light 13h 04m
Length of Day
12h 20m
Waxing Gibbous, 87% of the Moon is Illuminated
May 3
Waxing Gibbous
May 6
Full
May 13
Last Quarter
May 21
New
May 29
First Quarter

Hourly Weather History & Observations

Time (MYT) Temp. Heat Index Dew Point Humidity Pressure Visibility Wind Dir Wind Speed Gust Speed Precip Events Conditions
12:00 AM 77.0 °F - 73.4 °F 89% 29.80 in 6.2 mi SSW 4.6 mph - N/A   Mostly Cloudy
1:00 AM 77.0 °F - 73.4 °F 89% 29.80 in 6.2 mi SSW 4.6 mph - N/A   Mostly Cloudy
2:00 AM 77 °F - 73 °F 83% 29.77 in 7 mi SSW 5.8 mph - -   Haze
2:00 AM 77.0 °F - 73.4 °F 89% 29.77 in 6.2 mi SSW 5.8 mph - N/A   Mostly Cloudy
3:00 AM 77.0 °F - 73.4 °F 89% 29.74 in 6.2 mi SSW 3.5 mph - N/A   Mostly Cloudy
4:00 AM 75.2 °F - 73.4 °F 94% 29.71 in 6.2 mi SSW 3.5 mph - N/A   Mostly Cloudy
5:00 AM 75 °F - 73 °F 92% 29.74 in 7 mi SW 3.5 mph - -   Haze
5:00 AM 75.2 °F - 73.4 °F 94% 29.74 in 6.2 mi SW 3.5 mph - N/A   Mostly Cloudy
6:00 AM 75.2 °F - 73.4 °F 94% 29.74 in 6.2 mi SSW 4.6 mph - N/A   Mostly Cloudy
7:00 AM 75.2 °F - 71.6 °F 89% 29.74 in 6.2 mi SW 4.6 mph - N/A   Mostly Cloudy
8:00 AM 76 °F - 73 °F 86% 29.80 in 6 mi SSW 5.8 mph - -   Haze
8:00 AM 75.2 °F - 73.4 °F 94% 29.77 in 6.2 mi SSW 5.8 mph - N/A   Mostly Cloudy
9:00 AM 80.6 °F 85.4 °F 73.4 °F 79% 29.80 in 6.2 mi South 4.6 mph - N/A   Mostly Cloudy
10:00 AM 84.2 °F 92.3 °F 75.2 °F 74% 29.80 in 6.2 mi SSW 5.8 mph - N/A   Mostly Cloudy
11:00 AM 87 °F - 76 °F 62% 29.82 in 9 mi SW 8.1 mph - -   Haze
12:00 PM 89.6 °F 102.2 °F 77.0 °F 66% 29.80 in 6.2 mi WSW 10.4 mph - N/A   Mostly Cloudy
1:00 PM 91.4 °F 105.1 °F 77.0 °F 63% 29.77 in 6.2 mi WSW 6.9 mph - N/A   Mostly Cloudy
2:00 PM 91 °F - 76 °F 53% 29.75 in 9 mi SW 4.6 mph - -   Haze
2:00 PM 91.4 °F 102.5 °F 75.2 °F 59% 29.74 in 6.2 mi SW 4.6 mph - N/A   Mostly Cloudy
3:00 PM 91.4 °F 107.2 °F 78.8 °F 66% 29.71 in 6.2 mi NW 4.6 mph - N/A   Mostly Cloudy
4:00 PM 89.6 °F 104.7 °F 78.8 °F 70% 29.68 in 6.2 mi NNE 6.9 mph - N/A   Mostly Cloudy
5:00 PM 89 °F - 78 °F 64% 29.68 in 12 mi NNE 6.9 mph - -   Haze
5:00 PM 89.6 °F 104.7 °F 78.8 °F 70% 29.65 in 6.2 mi NNE 6.9 mph - N/A   Mostly Cloudy
6:00 PM 87.8 °F 102.5 °F 78.8 °F 75% 29.68 in 6.2 mi NE 6.9 mph - N/A   Mostly Cloudy
7:00 PM 86.0 °F 96.9 °F 77.0 °F 74% 29.68 in 6.2 mi NNE 5.8 mph - N/A   Mostly Cloudy
8:00 PM 85 °F - 78 °F 74% 29.72 in 9 mi North 2.3 mph - -   Scattered Clouds
8:00 PM 86.0 °F 99.3 °F 78.8 °F 79% 29.71 in 6.2 mi North 2.3 mph - N/A   Mostly Cloudy
9:00 PM 84.2 °F 94.1 °F 77.0 °F 79% 29.74 in 6.2 mi NNE 4.6 mph - N/A   Mostly Cloudy
10:00 PM 84.2 °F 96.1 °F 78.8 °F 84% 29.74 in 6.2 mi Calm Calm - N/A   Mostly Cloudy
11:00 PM 83 °F - 78 °F 81% 29.78 in 7 mi Calm Calm - -   Haze
11:00 PM 82.4 °F 92.4 °F 78.8 °F 89% 29.77 in 6.2 mi Calm Calm - N/A   Mostly Cloudy